2 Carport Messungen

Zurück zum Überblick

Zeitpunkt Temperatur Luftfeuchte
15.07.2019 23:53:32 23,1 C 44,0%
15.07.2019 23:46:31 23,3 C 44,0%
15.07.2019 23:39:28 23,4 C 44,0%
15.07.2019 23:32:27 23,5 C 44,0%
15.07.2019 23:25:25 23,5 C 44,0%
15.07.2019 23:23:41 23,6 C 44,0%
15.07.2019 23:11:20 23,7 C 43,0%
15.07.2019 23:04:19 23,8 C 43,0%
15.07.2019 22:57:16 23,9 C 43,0%
15.07.2019 22:50:14 24,1 C 43,0%
15.07.2019 22:43:12 24,2 C 43,0%
15.07.2019 22:36:12 24,3 C 42,0%
15.07.2019 22:29:11 24,4 C 42,0%
15.07.2019 22:22:08 24,6 C 42,0%
15.07.2019 22:15:05 24,7 C 42,0%
15.07.2019 22:08:02 24,8 C 41,0%
15.07.2019 22:01:02 24,9 C 41,0%
15.07.2019 21:54:00 25,2 C 41,0%
15.07.2019 21:46:58 25,3 C 41,0%
15.07.2019 21:39:57 25,5 C 41,0%
15.07.2019 21:32:54 25,6 C 41,0%
15.07.2019 21:25:51 25,8 C 41,0%
15.07.2019 21:18:49 26,0 C 41,0%
15.07.2019 21:11:47 26,2 C 40,0%
15.07.2019 21:04:43 26,4 C 40,0%
15.07.2019 20:57:41 26,6 C 40,0%
15.07.2019 20:50:39 26,7 C 39,0%
15.07.2019 20:43:36 26,9 C 39,0%
15.07.2019 20:36:34 27,1 C 39,0%
15.07.2019 20:29:32 27,2 C 39,0%
15.07.2019 20:22:30 27,3 C 39,0%
15.07.2019 20:15:28 27,5 C 38,0%
15.07.2019 20:08:27 27,8 C 38,0%
15.07.2019 20:01:25 28,0 C 38,0%
15.07.2019 19:54:23 28,1 C 38,0%
15.07.2019 19:47:24 28,3 C 37,0%
15.07.2019 19:40:21 28,5 C 37,0%
15.07.2019 19:33:19 28,7 C 37,0%
15.07.2019 19:26:16 28,9 C 37,0%
15.07.2019 19:19:15 29,1 C 36,0%
15.07.2019 19:12:13 29,3 C 36,0%
15.07.2019 19:05:12 29,6 C 36,0%
15.07.2019 18:58:10 29,8 C 36,0%
15.07.2019 18:51:08 29,9 C 35,0%
15.07.2019 18:44:06 30,2 C 35,0%
15.07.2019 18:37:05 30,3 C 35,0%
15.07.2019 18:30:04 30,2 C 36,0%
15.07.2019 18:23:02 30,3 C 35,0%
15.07.2019 18:16:01 30,8 C 35,0%
15.07.2019 18:08:58 31,4 C 34,0%
15.07.2019 18:01:57 31,6 C 34,0%
15.07.2019 17:54:55 31,4 C 34,0%
15.07.2019 17:47:53 31,2 C 34,0%
15.07.2019 17:40:51 31,4 C 35,0%
15.07.2019 17:33:48 31,4 C 35,0%
15.07.2019 17:26:47 31,4 C 35,0%
15.07.2019 17:19:43 31,4 C 35,0%
15.07.2019 17:12:42 31,2 C 35,0%
15.07.2019 17:05:39 30,9 C 36,0%
15.07.2019 16:58:36 30,6 C 36,0%
15.07.2019 16:51:33 30,9 C 36,0%
15.07.2019 16:44:31 31,0 C 36,0%
15.07.2019 16:37:28 31,1 C 36,0%
15.07.2019 16:30:26 31,2 C 36,0%
15.07.2019 16:23:23 30,9 C 36,0%
15.07.2019 16:16:21 30,8 C 36,0%
15.07.2019 16:09:19 30,9 C 36,0%
15.07.2019 16:02:17 30,9 C 36,0%
15.07.2019 15:55:16 31,1 C 36,0%
15.07.2019 15:48:14 31,3 C 36,0%
15.07.2019 15:41:11 31,4 C 36,0%
15.07.2019 15:34:11 31,4 C 36,0%
15.07.2019 15:27:09 31,5 C 36,0%
15.07.2019 15:20:07 31,7 C 36,0%
15.07.2019 15:13:05 31,8 C 36,0%
15.07.2019 15:06:03 31,9 C 36,0%
15.07.2019 14:59:01 31,9 C 36,0%
15.07.2019 14:51:58 31,9 C 36,0%
15.07.2019 14:44:57 32,0 C 36,0%
15.07.2019 14:37:56 31,9 C 36,0%
15.07.2019 14:30:54 31,9 C 36,0%
15.07.2019 14:23:52 31,6 C 38,0%
15.07.2019 14:16:50 31,4 C 38,0%
15.07.2019 14:09:48 30,7 C 38,0%
15.07.2019 14:02:47 29,8 C 39,0%
15.07.2019 13:55:44 29,3 C 39,0%
15.07.2019 13:48:43 29,2 C 39,0%
15.07.2019 13:41:40 29,2 C 39,0%
15.07.2019 13:34:39 29,3 C 40,0%
15.07.2019 13:27:37 29,0 C 40,0%
15.07.2019 13:20:36 28,6 C 41,0%
15.07.2019 13:13:35 28,3 C 41,0%
15.07.2019 13:06:35 28,0 C 41,0%
15.07.2019 12:59:34 27,7 C 41,0%
15.07.2019 12:52:30 27,4 C 42,0%
15.07.2019 12:45:29 27,3 C 42,0%
15.07.2019 12:38:25 27,3 C 42,0%
15.07.2019 12:31:25 27,3 C 42,0%
15.07.2019 12:24:24 27,1 C 43,0%
15.07.2019 12:17:23 26,9 C 43,0%
15.07.2019 12:10:20 26,7 C 43,0%
15.07.2019 12:03:17 26,5 C 44,0%
15.07.2019 11:56:04 26,1 C 45,0%
15.07.2019 11:49:12 25,8 C 45,0%
15.07.2019 11:42:11 25,4 C 46,0%
15.07.2019 11:35:09 25,3 C 46,0%
15.07.2019 11:28:08 25,3 C 46,0%
15.07.2019 11:21:07 25,3 C 46,0%
15.07.2019 11:14:06 25,2 C 46,0%
15.07.2019 11:07:04 24,9 C 47,0%
15.07.2019 11:00:04 24,7 C 48,0%
15.07.2019 10:53:01 24,4 C 48,0%
15.07.2019 10:45:59 24,0 C 48,0%
15.07.2019 10:38:57 23,7 C 49,0%
15.07.2019 10:31:54 23,3 C 50,0%
15.07.2019 10:24:52 22,9 C 50,0%
15.07.2019 10:17:50 22,6 C 50,0%
15.07.2019 10:10:46 22,5 C 51,0%
15.07.2019 10:03:45 22,4 C 51,0%
15.07.2019 09:56:43 22,4 C 51,0%
15.07.2019 09:49:42 22,4 C 51,0%
15.07.2019 09:42:40 22,5 C 51,0%
15.07.2019 09:35:38 22,4 C 51,0%
15.07.2019 09:28:35 22,4 C 51,0%
15.07.2019 09:21:34 22,2 C 51,0%
15.07.2019 09:14:31 22,1 C 51,0%
15.07.2019 09:07:29 22,0 C 52,0%
15.07.2019 09:00:28 21,9 C 52,0%
15.07.2019 08:53:25 21,8 C 52,0%
15.07.2019 08:46:23 21,7 C 52,0%
15.07.2019 08:39:20 21,6 C 52,0%
15.07.2019 08:32:19 21,5 C 53,0%
15.07.2019 08:25:16 21,4 C 53,0%
15.07.2019 08:18:14 21,4 C 53,0%
15.07.2019 08:11:14 21,3 C 53,0%
15.07.2019 08:04:11 21,1 C 53,0%
15.07.2019 07:57:08 21,0 C 53,0%
15.07.2019 07:50:05 20,9 C 54,0%
15.07.2019 07:43:04 20,8 C 54,0%
15.07.2019 07:36:03 20,7 C 54,0%
15.07.2019 07:29:01 20,6 C 54,0%
15.07.2019 07:22:01 20,5 C 54,0%
15.07.2019 07:14:59 20,5 C 54,0%
15.07.2019 07:07:57 20,4 C 54,0%
15.07.2019 07:00:55 20,3 C 54,0%
15.07.2019 06:53:54 20,2 C 54,0%
15.07.2019 06:46:53 20,2 C 54,0%
15.07.2019 06:39:52 20,1 C 54,0%
15.07.2019 06:32:49 20,1 C 54,0%
15.07.2019 06:25:48 20,1 C 55,0%
15.07.2019 06:18:47 20,1 C 54,0%
15.07.2019 06:11:45 20,1 C 54,0%
15.07.2019 06:04:42 20,0 C 54,0%
15.07.2019 05:57:42 20,1 C 54,0%
15.07.2019 05:50:40 20,1 C 54,0%
15.07.2019 05:43:38 20,1 C 54,0%
15.07.2019 05:36:36 20,2 C 54,0%
15.07.2019 05:29:35 20,2 C 54,0%
15.07.2019 05:22:32 20,2 C 54,0%
15.07.2019 05:15:30 20,2 C 54,0%
15.07.2019 05:08:28 20,2 C 54,0%
15.07.2019 05:01:25 20,3 C 54,0%
15.07.2019 04:54:22 20,3 C 54,0%
15.07.2019 04:47:19 20,3 C 54,0%
15.07.2019 04:40:16 20,4 C 54,0%
15.07.2019 04:33:15 20,4 C 54,0%
15.07.2019 04:26:12 20,5 C 54,0%
15.07.2019 04:19:11 20,5 C 54,0%
15.07.2019 04:12:09 20,5 C 54,0%
15.07.2019 04:05:09 20,5 C 54,0%
15.07.2019 03:58:06 20,5 C 53,0%
15.07.2019 03:51:05 20,6 C 53,0%
15.07.2019 03:44:03 20,7 C 53,0%
15.07.2019 03:37:00 20,7 C 53,0%
15.07.2019 03:29:57 20,7 C 53,0%
15.07.2019 03:22:55 20,8 C 53,0%
15.07.2019 03:15:53 20,8 C 53,0%
15.07.2019 03:08:51 20,8 C 53,0%
15.07.2019 03:01:49 20,9 C 52,0%
15.07.2019 02:54:47 20,9 C 52,0%
15.07.2019 02:47:44 20,9 C 52,0%
15.07.2019 02:40:40 21,0 C 52,0%
15.07.2019 02:33:40 21,1 C 52,0%
15.07.2019 02:26:37 21,1 C 52,0%
15.07.2019 02:19:37 21,1 C 52,0%
15.07.2019 02:12:36 21,2 C 52,0%
15.07.2019 02:05:34 21,2 C 52,0%
15.07.2019 01:58:33 21,3 C 52,0%
15.07.2019 01:51:32 21,4 C 52,0%
15.07.2019 01:44:30 21,4 C 52,0%
15.07.2019 01:37:28 21,4 C 51,0%
15.07.2019 01:30:26 21,5 C 51,0%
15.07.2019 01:23:22 21,5 C 51,0%
15.07.2019 01:16:22 21,6 C 51,0%
15.07.2019 01:09:19 21,7 C 51,0%
15.07.2019 01:02:18 21,7 C 51,0%
15.07.2019 00:55:15 21,7 C 51,0%
15.07.2019 00:48:13 21,8 C 51,0%
15.07.2019 00:41:09 21,8 C 50,0%
15.07.2019 00:34:07 21,9 C 50,0%
15.07.2019 00:27:05 21,9 C 50,0%
15.07.2019 00:20:03 22,0 C 50,0%
15.07.2019 00:13:01 22,0 C 50,0%
15.07.2019 00:06:00 22,1 C 50,0%